| time (UTC) | temp F | wind direction | speed MPH | gust MPH | rain 1hr in | rain 24hr in | rain mn in | humidity % | barometer mb |
| 20260510230052 | 60 | 237 | 0.0 | 0.0 | 0.01 | 0.11 | 0.01 | 84 | 1012.6 |
| 20260510224551 | 60 | 225 | 0.0 | 0.0 | 0.00 | 0.14 | 0.00 | 81 | 1012.1 |
| 20260510223050 | 61 | 201 | 0.0 | 0.0 | 0.00 | 0.14 | 0.00 | 78 | 1011.9 |
| 20260510221548 | 64 | 264 | 1.0 | 5.0 | 0.00 | 0.14 | 0.00 | 79 | 1011.9 |
| 20260510220048 | 66 | 44 | 0.0 | 0.0 | 0.00 | 0.14 | 0.00 | 71 | 1011.0 |
| 20260510214548 | 68 | 44 | 0.0 | 0.0 | 0.00 | 0.25 | 0.00 | 70 | 1010.6 |
| 20260510213056 | 69 | 44 | 0.0 | 0.0 | 0.00 | 0.25 | 0.00 | 67 | 1010.7 |
| 20260510211548 | 69 | 35 | 0.0 | 0.0 | 0.00 | 0.25 | 0.00 | 66 | 1010.6 |
| 20260510210048 | 71 | 276 | 0.0 | 0.0 | 0.00 | 0.25 | 0.00 | 61 | 1010.8 |
| 20260510204553 | 71 | 249 | 0.0 | 0.0 | 0.00 | 0.37 | 0.00 | 60 | 1010.6 |
| 20260510203044 | 71 | 56 | 0.0 | 4.0 | 0.00 | 0.37 | 0.00 | 60 | 1010.4 |
| 20260510201543 | 71 | 27 | 0.0 | 8.0 | 0.00 | 0.37 | 0.00 | 61 | 1010.2 |
| 20260510200042 | 71 | 231 | 0.0 | 5.0 | 0.00 | 0.37 | 0.00 | 60 | 1010.5 |
| 20260510194543 | 72 | 245 | 0.0 | 0.0 | 0.00 | 0.37 | 0.00 | 61 | 1010.6 |
| 20260510193040 | 73 | 32 | 0.0 | 8.0 | 0.00 | 0.37 | 0.00 | 58 | 1010.6 |
| 20260510191545 | 75 | 230 | 0.0 | 9.0 | 0.00 | 0.37 | 0.00 | 60 | 1010.8 |
| 20260510190041 | 74 | 170 | 0.0 | 3.0 | 0.00 | 0.37 | 0.00 | 59 | 1010.7 |
| 20260510184535 | 75 | 200 | 0.0 | 1.0 | 0.00 | 0.37 | 0.00 | 56 | 1011.0 |
| 20260510183041 | 74 | 233 | 0.0 | 3.0 | 0.00 | 0.37 | 0.00 | 56 | 1010.9 |
| 20260510181543 | 74 | 314 | 0.0 | 9.0 | 0.00 | 0.37 | 0.00 | 59 | 1011.1 |
| 20260510180032 | 73 | 221 | 0.0 | 0.0 | 0.00 | 0.37 | 0.00 | 61 | 1011.3 |
| 20260510174524 | 71 | 216 | 0.0 | 0.0 | 0.00 | 0.38 | 0.00 | 66 | 1011.2 |
| 20260510173025 | 71 | 189 | 0.0 | 4.0 | 0.00 | 0.38 | 0.00 | 65 | 1011.5 |
| 20260510171522 | 70 | 63 | 0.0 | 6.0 | 0.00 | 0.38 | 0.00 | 67 | 1011.6 |
| 20260510170022 | 70 | 92 | 0.0 | 0.0 | 0.00 | 0.38 | 0.00 | 69 | 1011.8 |
| 20260510164523 | 71 | 190 | 0.0 | 6.0 | 0.00 | 0.41 | 0.00 | 69 | 1011.7 |
| 20260510163019 | 70 | 259 | 2.0 | 6.0 | 0.00 | 0.41 | 0.00 | 67 | 1011.7 |
| 20260510161519 | 69 | 77 | 0.0 | 8.0 | 0.00 | 0.41 | 0.00 | 68 | 1011.8 |
| 20260510160016 | 70 | 240 | 0.0 | 0.0 | 0.00 | 0.41 | 0.00 | 69 | 1011.8 |
| 20260510154513 | 69 | 212 | 0.0 | 0.0 | 0.00 | 0.44 | 0.00 | 71 | 1011.9 |
| 20260510153015 | 67 | 272 | 0.0 | 0.0 | 0.00 | 0.44 | 0.00 | 74 | 1012.0 |
| 20260510151507 | 65 | 79 | 0.0 | 0.0 | 0.00 | 0.44 | 0.00 | 77 | 1012.3 |
| 20260510150002 | 64 | 145 | 0.0 | 0.0 | 0.00 | 0.44 | 0.00 | 82 | 1012.4 |
| 20260510144603 | 61 | 205 | 0.0 | 2.0 | 0.00 | 0.47 | 0.00 | 84 | 1012.4 |
| 20260510143057 | 60 | 150 | 0.0 | 3.0 | 0.00 | 0.47 | 0.00 | 86 | 1012.5 |
| 20260510141552 | 59 | 206 | 0.0 | 1.0 | 0.00 | 0.47 | 0.00 | 89 | 1012.7 |
| 20260510140049 | 58 | 148 | 0.0 | 0.0 | 0.00 | 0.47 | 0.00 | 90 | 1012.6 |
| 20260510134553 | 57 | 54 | 0.0 | 0.0 | 0.00 | 0.50 | 0.00 | 92 | 1012.4 |
| 20260510133044 | 57 | 91 | 0.0 | 0.0 | 0.00 | 0.50 | 0.00 | 95 | 1012.4 |
| 20260510131541 | 55 | 75 | 0.0 | 0.0 | 0.00 | 0.50 | 0.00 | 95 | 1012.5 |
| 20260510130041 | 54 | 108 | 0.0 | 0.0 | 0.00 | 0.50 | 0.00 | 96 | 1012.6 |
| 20260510124539 | 53 | 49 | 0.0 | 0.0 | 0.00 | 0.51 | 0.00 | 96 | 1012.6 |
| 20260510123036 | 53 | 79 | 0.0 | 0.0 | 0.00 | 0.51 | 0.00 | 96 | 1012.4 |
| 20260510121534 | 52 | 231 | 0.0 | 0.0 | 0.00 | 0.51 | 0.00 | 96 | 1012.5 |
| 20260510120035 | 52 | 179 | 0.0 | 0.0 | 0.00 | 0.51 | 0.00 | 96 | 1012.5 |
| 20260510114533 | 52 | 200 | 0.0 | 0.0 | 0.00 | 0.52 | 0.00 | 97 | 1012.5 |
| 20260510113028 | 51 | 290 | 0.0 | 0.0 | 0.00 | 0.52 | 0.00 | 96 | 1012.6 |
| 20260510111523 | 50 | 290 | 0.0 | 0.0 | 0.00 | 0.52 | 0.00 | 96 | 1012.7 |
| 20260510110030 | 50 | 229 | 0.0 | 0.0 | 0.00 | 0.52 | 0.00 | 96 | 1012.2 |
| 20260510104518 | 0 | 0.0 | 0.0 | 0.00 | 0.52 | 0.00 | 1012.1 | ||
| 20260510103016 | 0 | 0.0 | 0.0 | 0.00 | 0.52 | 0.00 | 1012.0 | ||
| 20260510101511 | 0 | 0.0 | 0.0 | 0.00 | 0.52 | 0.00 | 1011.7 | ||
| 20260510100007 | 0 | 0.0 | 0.0 | 0.00 | 0.52 | 0.00 | 1011.8 | ||
| 20260510094501 | 0 | 0.0 | 0.0 | 0.00 | 0.52 | 0.00 | 1011.9 | ||
| 20260510093058 | 0 | 0.0 | 0.0 | 0.00 | 0.52 | 0.00 | 1012.0 | ||
| 20260510091555 | 0 | 0.0 | 0.0 | 0.00 | 0.52 | 0.00 | 1011.6 | ||
| 20260510084559 | 0 | 0.0 | 0.0 | 0.00 | 0.52 | 0.00 | 1011.4 | ||
| 20260510083101 | 0 | 0.0 | 0.0 | 0.00 | 0.52 | 0.00 | 1011.4 | ||
| 20260510081554 | 0 | 0.0 | 0.0 | 0.00 | 0.52 | 0.00 | 1011.2 | ||
| 20260510080050 | 0 | 0.0 | 0.0 | 0.00 | 0.52 | 0.00 | 1011.2 | ||
| 20260510074601 | 0 | 0.0 | 0.0 | 0.00 | 0.52 | 0.00 | 1011.1 | ||
| 20260510073046 | 0 | 141 | 0.0 | 0.0 | 0.00 | 0.52 | 0.00 | 96 | 1011.2 |
| 20260510071547 | 49 | 134 | 0.0 | 0.0 | 0.00 | 0.52 | 0.00 | 96 | 1011.1 |
| 20260510070040 | 49 | 134 | 0.0 | 0.0 | 0.00 | 0.52 | 0.00 | 96 | 1010.7 |
| 20260510064538 | 50 | 119 | 0.0 | 0.0 | 0.00 | 0.52 | 0.00 | 96 | 1010.6 |
| 20260510063032 | 50 | 119 | 0.0 | 0.0 | 0.00 | 0.52 | 0.00 | 96 | 1011.2 |
| 20260510061531 | 50 | 119 | 0.0 | 0.0 | 0.00 | 0.52 | 0.00 | 96 | 1011.2 |
| 20260510060035 | 50 | 119 | 0.0 | 0.0 | 0.00 | 0.52 | 0.00 | 96 | 1011.3 |
| 20260510054531 | 50 | 119 | 0.0 | 0.0 | 0.00 | 0.52 | 0.00 | 96 | 1011.3 |
| 20260510053028 | 50 | 119 | 0.0 | 0.0 | 0.00 | 0.52 | 0.00 | 96 | 1011.3 |
| 20260510051537 | 50 | 119 | 0.0 | 0.0 | 0.00 | 0.52 | 0.00 | 96 | 1011.7 |
| 20260510050030 | 50 | 119 | 0.0 | 0.0 | 0.00 | 0.52 | 0.00 | 96 | 1011.5 |
| 20260510044526 | 50 | 119 | 0.0 | 0.0 | 0.00 | 0.52 | 0.00 | 96 | 1011.5 |
| 20260510043025 | 50 | 127 | 0.0 | 0.0 | 0.00 | 0.52 | 0.00 | 96 | 1011.6 |
| 20260510041522 | 50 | 58 | 0.0 | 0.0 | 0.00 | 0.52 | 0.00 | 96 | 1011.7 |
| 20260510040019 | 50 | 58 | 0.0 | 0.0 | 0.00 | 0.52 | 0.00 | 96 | 1011.5 |
| 20260510034517 | 50 | 8 | 0.0 | 0.0 | 0.00 | 0.52 | 0.52 | 96 | 1011.7 |
| 20260510033020 | 50 | 8 | 0.0 | 0.0 | 0.00 | 0.52 | 0.52 | 96 | 1011.6 |
| 20260510031516 | 50 | 7 | 0.0 | 0.0 | 0.00 | 0.52 | 0.52 | 96 | 1011.7 |
| 20260510030012 | 50 | 7 | 0.0 | 0.0 | 0.00 | 0.52 | 0.52 | 96 | 1012.1 |
| 20260510024509 | 50 | 56 | 0.0 | 0.0 | 0.00 | 0.52 | 0.52 | 96 | 1012.2 |
| 20260510023008 | 50 | 55 | 0.0 | 0.0 | 0.00 | 0.52 | 0.52 | 96 | 1012.3 |
| 20260510021507 | 50 | 55 | 0.0 | 0.0 | 0.00 | 0.52 | 0.52 | 96 | 1012.3 |
| 20260510020007 | 50 | 55 | 0.0 | 0.0 | 0.00 | 0.52 | 0.52 | 96 | 1012.2 |
| 20260510014512 | 50 | 319 | 0.0 | 0.0 | 0.00 | 0.52 | 0.52 | 96 | 1012.3 |
| 20260510013005 | 49 | 330 | 0.0 | 0.0 | 0.01 | 0.52 | 0.52 | 96 | 1012.3 |
| 20260510011506 | 49 | 309 | 0.0 | 0.0 | 0.01 | 0.52 | 0.52 | 96 | 1012.1 |
| 20260510010001 | 49 | 180 | 0.0 | 0.0 | 0.02 | 0.52 | 0.52 | 96 | 1011.8 |
| 20260510004604 | 48 | 203 | 0.0 | 0.0 | 0.03 | 0.52 | 0.52 | 95 | 1011.8 |
| 20260510003105 | 48 | 288 | 0.0 | 0.0 | 0.04 | 0.51 | 0.51 | 95 | 1011.8 |
| 20260510001558 | 48 | 159 | 0.0 | 0.0 | 0.06 | 0.51 | 0.51 | 95 | 1012.1 |
| 20260510000121 | 47 | 68 | 0.0 | 0.0 | 0.07 | 0.50 | 0.50 | 95 | 1012.4 |
| 20260509234605 | 47 | 107 | 0.0 | 0.0 | 0.08 | 0.49 | 0.49 | 95 | 1012.3 |
| 20260509233056 | 47 | 243 | 0.0 | 0.0 | 0.07 | 0.47 | 0.47 | 95 | 1012.4 |
| 20260509231557 | 48 | 147 | 0.0 | 0.0 | 0.06 | 0.45 | 0.45 | 95 | 1012.3 |